{"data":{"norad_id":58543,"epoch":"2026-09-20T15:27:11.465280Z","epoch_age_seconds":134540,"freshness":"FRESH","line1":"1 58543U 23192N   26263.64388270 -.00000175  00000+0  59637-5 0  9997","line2":"2 58543  53.1585 232.9517 0001737  74.4030 285.7164 15.34389459155891","mean_motion":15.34389459,"eccentricity":0.0001737,"inclination_deg":53.1585,"raan_deg":232.9517,"arg_perigee_deg":74.403,"mean_anomaly_deg":285.7164,"bstar":5.9637e-6,"rev_number":15589,"period_min":93.848402799801,"perigee_km":461.54631106809,"apogee_km":463.92282985167,"semimajor_km":6840.8715704599,"source":"CELESTRAK","updated_at":"2026-09-21T09:00:33.914520Z"}}